Weather in Vizinga

Russia / Komi Republic     61°04′31″N   50°05′00″E
temp.,
°C
wind,
m/s
gust,
m/s
humid.,
%
clouds,
%
prec.,
mm/h
press.,
hPa
HPBL,
m
23 april, fri
fri2300:00+5ssw399495 0.6 1019709
03:00+5ssw398663 0.6 1020523
06:00+5ssw3989100 0.0 1021451
09:00+9ssw477238 0.0 1022719
12:00+12sw465674 0.1 10221644
15:00+12ssw465578 0.1 10221021
18:00+11s265856 0.0 1022210
21:00+7s3107740 0.0 1023235
24 april, sat
sat2400:00+5sse269073 0.0 1023108
03:00+6se268297 0.0 1022126
06:00+7se3979100 0.0 1021255
09:00+8se4978100 0.2 1021737
12:00+12se5647100 0.2 10191972
15:00+10ese4655100 0.2 10171348
18:00+9ese4962100 0.0 1016932
21:00+7ese41072100 0.0 1014751
25 april, sun
sun2500:00+6ese4987100 0.1 10121026
03:00+6ese4992100 0.7 10101104
06:00+5e4994100 0.2 10081024
09:00+4ese41197100 1.6 1007868
12:00+6ese4983100 0.2 10051130
15:00+5ese41091100 0.8 10041000
18:00+4e4895100 0.2 10031014
21:00+4ese3697100 0.6 1002880
26 april, mon
mon2600:00+4ese2498100 0.5 1001808
03:00+3e2398100 1.3 1000803
06:00+3sse1298100 0.5 1000703
09:00+2ssw3597100 0.9 1001543
12:00+2ssw3798100 0.8 1003422
15:00+2sw3897100 1.6 1004501
18:00+2sw3997100 0.2 1005621
21:00+2sw41197100 0.6 1006783
27 april, tue
tue2700:00+2wsw41091100 0.3 1006922
03:00+2sw41091100 0.3 1006609
06:00+2sw41189100 0.0 1006550
09:00+6sw486421 0.0 10061357
12:00+9sw3543100 0.1 10062129
15:00+10s2339100 0.1 10041986
18:00+6ese247199 0.0 1004312
21:00+4ne2482100 0.0 1003114